TIME,DELAY(SENSOR),PRES,OXYGEN,RAWTEMP,T(OPTODE),TCPHASE,FLUOR,BETA(BETA700),BETA(BETA412),BETA(BETA440),CDOM,C(CSC),ED(ED412.40),ED(ED444.00),ED(ED489.70),ED(ED554.30),LU(LU411.80),LU(LU443.40),LU(LU489.60),LU(LU554.10),COMP,TILTX,TILTY,CHECK
1357098834,5807,860.8699951171875000,46.4539299011230500,665.6636962890625000,4.4413361549377440,54.1122817993164060,53,101,88,79,81,15140,2147753938,2147422592,2148008182,2147875364,2147638875,2147058614,2148257014,2147198509,3390,4,13,1538
1357102430,5810,945.9600219726562000,49.5753211975097660,674.7067871093750000,4.1425881385803220,53.7879714965820300,52,98,90,78,80,15141,2147755209,2147421293,2148009234,2147876608,2147645458,2147052681,2148257929,2147198500,1085,4,14,63729
1357106030,5810,972.4699707031250000,50.1946296691894500,676.5288696289062000,4.0822830200195310,53.7286491394043000,52,99,89,78,81,15139,2147753938,2147421165,2148005284,2147876242,2147644489,2147060800,2148264365,2147195913,500,4,13,13354
1357109630,5809,975.1599731445312000,50.0943984985351560,676.6735229492188000,4.0774922370910645,53.7396697998046900,53,101,88,78,81,15140,2147757787,2147421869,2148007085,2147875611,2147644882,2147051273,2148264438,2147198290,3564,4,13,25006
1357113230,5809,979.3499755859375000,49.8832588195800800,676.7089843750000000,4.0763168334960940,53.7719306945800800,53,102,88,80,81,15142,2147758016,2147422418,2148007872,2147876992,2147645933,2147053860,2148267337,2147200274,313,4,13,8495
1357116830,5809,987.8800048828125000,49.2756690979003900,675.9105224609375000,4.1027531623840330,53.8438301086425800,53,100,88,80,81,15141,2147755830,2147423753,2148008173,2147876068,2147642742,2147055232,2148260425,2147196278,27,4,13,58859
1357120430,5811,982.9799804687500000,49.4887504577636700,676.9578857421875000,4.0680751800537110,53.8309707641601560,52,100,91,79,81,15088,2147760694,2147422692,2148009344,2147877476,2147641627,2147053110,2148262464,2147194843,263,4,13,19220
1357124030,5806,980.8499755859375000,49.6908988952636700,678.7620239257812000,4.0083179473876950,53.8230400085449200,51,99,89,78,80,15143,2147757915,2147423076,2148010121,2147877485,2147643620,2147053970,2148259958,2147196233,3482,4,13,48941
1357127630,5805,993.6799926757812000,49.6392517089843750,677.3032836914062000,4.0566368103027340,53.8145790100097660,52,98,84,79,81,15143,2147759506,2147422601,2148010331,2147876717,2147638528,2147059712,2148264365,2147196032,299,4,13,21899
1357131230,5808,991.0100097656250000,49.4289207458496100,677.1314697265625000,4.0623259544372560,53.8389701843261700,52,98,87,79,80,15138,2147757458,2147422747,2148009600,2147874587,2147643428,2147060214,2148262491,2147197988,178,4,13,40985
1357134830,5807,988.2199707031250000,49.1348190307617200,677.4384155273438000,4.0521659851074220,53.8811798095703100,52,99,90,80,81,15141,2147757010,2147420022,2148008000,2147873718,2147641746,2147052123,2148264685,2147196205,3565,4,13,10024
1357138430,5809,1004.2399902343750000,48.9477996826171900,675.7756958007812000,4.1072158813476560,53.8883094787597660,53,98,86,79,82,15139,2147758317,2147421961,2148005760,2147879204,2147646665,2147050276,2148262802,2147199058,3416,4,13,57198
1357142030,5808,1004.5599975585938000,48.4875488281250000,674.8801269531250000,4.1368560791015625,53.9409904479980500,52,100,87,79,81,15139,2147757504,2147424448,2148009033,2147877842,2147641408,2147055744,2148260004,2147200896,3560,4,13,39488
1357145630,5810,998.9600219726562000,48.4799995422363300,675.4901733398438000,4.1166648864746090,53.9535217285156250,52,98,90,78,81,15140,2147757202,2147421705,2148007917,2147874697,2147643245,2147052818,2148260196,2147197613,306,4,13,12707
1357149230,5808,1001.0999755859375000,48.4736518859863300,675.5925292968750000,4.1132788658142090,53.9508514404296900,53,98,86,78,81,15138,2147759698,2147422866,2148009654,2147874614,2147643318,2147054665,2148267474,2147195757,215,4,13,27728
1357152830,5808,1005.0100097656250000,48.2779884338378900,674.9194946289062000,4.1355509757995605,53.9682617187500000,52,101,86,79,81,15135,2147757284,2147423954,2148008054,2147876992,2147641554,2147059099,2148265289,2147196955,65,4,13,15413
1357156430,5808,1005.0499877929688000,48.4301109313964840,674.2224731445312000,4.1586132049560550,53.9411506652832000,53,99,88,79,80,15134,2147756982,2147423405,2148005650,2147876571,2147643474,2147051236,2148257572,2147196809,3478,4,13,11889
1357160030,5806,994.4099731445312000,48.2752990722656250,675.6594848632812000,4.1110591888427730,53.9818687438964840,52,99,86,79,81,15134,2147757257,2147423798,2148009618,2147875126,2147642724,2147054811,2148269266,2147191972,306,4,13,60083
1357163630,5806,998.6699829101562000,48.7016792297363300,676.3297729492188000,4.0888729095458980,53.9332084655761700,52,98,86,80,80,15137,2147759122,2147422107,2148012169,2147876096,2147644032,2147055222,2148261046,2147194066,736,4,13,28390
1357167230,5809,1001.9600219726562000,48.7693214416503900,675.9744873046875000,4.1006321907043460,53.9141197204589840,52,100,93,79,81,15137,2147759131,2147421156,2148010002,2147868982,2147646134,2147053202,2148266660,2147197622,384,4,13,14044
1357170830,5807,1012.0700073242188000,48.6677513122558600,674.9849853515625000,4.1333827972412110,53.9149894714355500,53,98,85,79,81,15134,2147756489,2147421540,2148011547,2147876937,2147644196,2147058624,2148262866,2147197083,167,4,13,27427
1357174430,5809,998.2800292968750000,48.4945716857910160,676.0798950195312000,4.0971450805664060,53.9583206176757800,52,99,87,79,80,15133,2147755830,2147421074,2148008877,2147876626,2147644443,2147056210,2148261924,2147195748,611,4,13,24958
1357178030,5809,989.6900024414062000,48.7975082397460940,677.0634765625000000,4.0645771026611330,53.9288291931152340,53,99,85,80,80,15136,2147758253,2147426358,2148010532,2147874377,2147644178,2147058569,2148263789,2147196909,1112,4,13,36475
1357181630,5810,993.9799804687500000,48.8881912231445300,677.9830932617188000,4.0341219902038570,53.9238014221191400,53,99,87,78,81,15131,2147759360,2147423597,2148010633,2147874989,2147644854,2147064603,2148262848,2147198153,36,4,13,31445
1357185230,5809,997.5900268554688000,49.3475608825683600,677.8422851562500000,4.0387878417968750,53.8591194152832000,52,99,87,79,81,15135,2147756617,2147423177,2148007131,2147872338,2147643693,2147053330,2148269814,2147198281,3278,4,13,26769
1357188830,5810,993.3699951171875000,49.2200508117675800,678.3715820312500000,4.0212540626525880,53.8851203918457000,52,99,88,80,82,15131,2147753718,2147422363,2148013476,2147872585,2147644342,2147056987,2148266221,2147195428,210,4,13,6246
1357192430,5805,999.7999877929688000,49.9053993225097660,679.5112304687500000,3.9834899902343750,53.8038902282714840,53,99,89,78,80,15132,2147758674,2147420187,2148010550,2147876763,2147646134,2147055725,2148263661,2147198144,57,4,13,54813
1357196030,5807,995.0200195312500000,49.8899917602539060,678.8845214843750000,4.0042610168457030,53.7991600036621100,52,98,83,79,81,15131,2147755958,2147422866,2148011456,2147875867,2147646665,2147058212,2148262592,2147193993,231,4,13,18966
1357199630,5807,1004.2700195312500000,49.6123390197753900,678.5064697265625000,4.0167808532714840,53.8310890197753900,51,98,89,80,81,15131,2147759460,2147422518,2148012489,2147874541,2147644964,2147055670,2148263524,2147199277,3519,4,13,42429
1357203230,5805,1003.2199707031250000,48.2607307434082000,677.7122802734375000,4.0430932044982910,54.0060081481933600,53,99,85,78,81,15131,2147763428,2147422985,2148010075,2147878144,2147645403,2147059501,2148263378,2147197805,341,4,13,52356
1357206830,5808,1006.0700073242188000,48.8118209838867200,676.8359985351562000,4.0721130371093750,53.9179496765136700,52,98,84,81,81,15129,2147760256,2147420598,2148010651,2147875593,2147646262,2147056850,2148270555,2147196114,3579,4,13,35029
1357210430,5807,1003.9799804687500000,48.6344490051269500,676.9030761718750000,4.0698890686035160,53.9468498229980500,54,100,91,79,82,15129,2147761755,2147424118,2148008694,2147877229,2147643922,2147057206,2148263817,2147195044,3567,4,13,14273
1357214030,5808,1003.2000122070312000,48.5267295837402340,677.6311035156250000,4.0457820892333980,53.9727210998535160,53,98,88,79,81,15102,2147761682,2147421613,2148011410,2147878601,2147647341,2147052662,2148265481,2147198070,206,4,13,15512
1357217630,5811,1009.8300170898438000,48.5111694335937500,676.2474975585938000,4.0915970802307130,53.9586296081543000,52,98,89,79,81,15127,2147759350,2147423122,2148009426,2147874642,2147648137,2147060708,2148262555,2147196260,341,4,13,9384
1357221230,5808,1009.6099853515625000,48.0442886352539060,676.2473754882812000,4.0915999412536620,54.0165901184082000,52,98,88,77,80,15124,2147760466,2147424256,2148010176,2147874203,2147645842,2147059227,2148266395,2147197906,3521,4,13,5206
1357224830,5810,1004.5999755859375000,48.2650413513183600,677.5961914062500000,4.0469379425048830,54.0030899047851560,53,100,85,78,81,15127,2147757924,2147419629,2148008676,2147878546,2147648155,2147053869,2148265563,2147195931,12,4,13,33030
1357228430,5810,1008.6599731445312000,48.8371810913085940,677.7841796875000000,4.0407118797302250,53.9255485534668000,52,99,84,80,80,15123,2147757952,2147422253,2148010852,2147875675,2147646610,2147057014,2148266029,2147198720,3367,4,13,64251
1357232030,5809,1003.5100097656250000,49.0524902343750000,677.6190185546875000,4.0461812019348145,53.8962211608886700,52,98,90,78,81,15122,2147757988,2147421622,2148011446,2147876489,2147644617,2147050358,2148263131,2147201682,3522,4,14,63075
1357235630,5807,997.2800292968750000,48.9777488708496100,678.1868896484375000,4.0273718833923340,53.9137992858886700,52,100,89,79,81,15124,2147759616,2147423497,2148008018,2147875273,2147639616,2147055433,2148266148,2147198390,149,4,13,53095
1357239230,5808,1006.0300292968750000,48.8175697326660160,678.1760864257812000,4.0277309417724610,53.9340095520019500,52,103,88,80,83,15126,2147756178,2147422820,2148009234,2147876854,2147644699,2147056923,2148267072,2147197833,592,4,13,45727
1357242830,5804,1015.3599853515625000,48.9467086791992200,676.7938232421875000,4.0735111236572270,53.9024696350097660,52,98,89,78,81,15121,2147760228,2147424658,2148012333,2147874176,2147646363,2147057993,2148263661,2147199753,183,4,13,3583
1357243255,5808,1016.2399902343750000,48.8747100830078100,676.2410278320312000,4.0918140411376950,53.9050788879394500,52,99,88,81,80,15131,2147759469,2147422089,2148012022,2147877952,2147644032,2147057462,2148264256,2147194880,2960,4,13,15291
